Weather History for Malmstrom AFB, MT

Change the Weather History Date:

Thursday, April 17, 2014

  Actual Average (KGTF) Record (KGTF)
Temperature  
Mean Temperature 46 °F 43 °F  
Max Temperature 59 °F 56 °F 82 °F (1936)
Min Temperature 33 °F 31 °F 12 °F (1968)
Degree Days  
Heating Degree Days 19 22  
Month to date heating degree days 404  
Since 1 July heating degree days 6862  
Cooling Degree Days 0 0  
Month to date cooling degree days 0  
Year to date cooling degree days 0  
Moisture  
Dew Point 32 °F    
Average Humidity 61    
Maximum Humidity 86    
Minimum Humidity 32    
Precipitation  
Precipitation 0.04 in 0.05 in 0.56 in (1971)
Month to date precipitation 0.76  
Year to date precipitation 2.65  
Snow  
Snow 0.00 in 0.30 in 5.40 in (2011)
Month to date snowfall 5.3  
Since 1 July snowfall 57.2  
Snow Depth -    
Sea Level Pressure  
Sea Level Pressure 29.92 in    
Wind  
Wind Speed 10 mph (South)    
Max Wind Speed 17 mph    
Max Gust Speed 23 mph    
Visibility 10 miles    
Events Rain    
T = Trace of Precipitation, MM = Missing Value Source: NWS Daily Summary

Daily Weather History Graph

Daily Weather History Graph

Search for Another Location

Airport:

Trip Planner

Search our weather history database for the weather conditions in past years. The results will help you decide how hot, cold, wet, or windy it might be!

Date:

Astronomy

Apr. 17, 2014 Rise Set
Actual Time 6:32 AM MDT 8:17 PM MDT
Civil Twilight 5:59 AM MDT 8:49 PM MDT
Nautical Twilight 5:20 AM MDT 9:29 PM MDT
Astronomical Twilight 4:36 AM MDT 10:13 PM MDT
Moon 11:15 PM MDT (4/17) 7:59 AM MDT (4/17)
Length of Visible Light 14h 50m
Length of Day
13h 44m
Waning Gibbous, 93% of the Moon is Illuminated
Apr 17
Waning Gibbous
Apr 22
Last Quarter
Apr 29
New
May 6
First Quarter
May 14
Full

Hourly Weather History & Observations

Time (MDT) Temp. Windchill Dew Point Humidity Pressure Visibility Wind Dir Wind Speed Gust Speed Precip Events Conditions
12:56 AM 33.1 °F 24.9 °F 28.0 °F 82% 30.06 in 10.0 mi South 10.4 mph - N/A   Clear
1:56 AM 34.0 °F 26.0 °F 28.0 °F 79% 30.05 in 10.0 mi SSW 10.4 mph - N/A   Clear
2:56 AM 35.1 °F 26.4 °F 28.0 °F 76% 30.03 in 10.0 mi South 12.7 mph - N/A   Clear
3:56 AM 34.0 °F 26.6 °F 27.0 °F 75% 30.02 in 10.0 mi South 9.2 mph - N/A   Clear
4:56 AM 35.1 °F 27.4 °F 28.0 °F 76% 30.02 in 10.0 mi South 10.4 mph - N/A   Clear
5:56 AM 35.1 °F 28.6 °F 28.0 °F 76% 30.00 in 10.0 mi South 8.1 mph - N/A   Clear
6:56 AM 35.1 °F 27.4 °F 28.0 °F 76% 30.00 in 10.0 mi SSW 10.4 mph - N/A   Clear
7:56 AM 39.9 °F 35.8 °F 30.9 °F 70% 29.99 in 10.0 mi SSW 5.8 mph - N/A   Overcast
8:56 AM 48.0 °F - 33.1 °F 56% 29.98 in 10.0 mi SSW 13.8 mph - N/A   Overcast
10:56 AM 51.1 °F - 28.9 °F 43% 29.96 in 10.0 mi SW 17.3 mph - N/A   Overcast
11:56 AM 52.0 °F - 28.0 °F 40% 29.96 in 10.0 mi SSW 15.0 mph 23.0 mph N/A   Overcast
12:56 PM 50.0 °F - 32.0 °F 50% 29.95 in 10.0 mi SSE 11.5 mph - 0.00 in Rain Light Rain
1:56 PM 53.1 °F - 33.1 °F 47% 29.92 in 10.0 mi SE 16.1 mph - 0.00 in   Overcast
2:56 PM 55.0 °F - 28.9 °F 37% 29.89 in 10.0 mi SSE 9.2 mph - N/A   Partly Cloudy
3:56 PM 59.0 °F - 30.0 °F 33% 29.85 in 10.0 mi South 10.4 mph 23.0 mph N/A   Mostly Cloudy
4:56 PM 59.0 °F - 28.9 °F 32% 29.83 in 10.0 mi SSW 10.4 mph - N/A   Overcast
5:56 PM 57.9 °F - 30.0 °F 35% 29.82 in 10.0 mi South 6.9 mph - N/A   Overcast
6:56 PM 57.0 °F - 33.1 °F 40% 29.81 in 10.0 mi SSW 5.8 mph - 0.00 in Rain Light Rain
7:56 PM 54.0 °F - 37.0 °F 53% 29.81 in 10.0 mi SW 6.9 mph - 0.00 in Rain Light Rain
8:56 PM 48.9 °F - 41.0 °F 74% 29.81 in 10.0 mi SE 6.9 mph - 0.01 in Rain Light Rain
9:56 PM 46.9 °F - 43.0 °F 86% 29.81 in 10.0 mi SE 4.6 mph - 0.02 in Rain Light Rain
10:56 PM 46.9 °F - 43.0 °F 86% 29.79 in 10.0 mi SE 5.8 mph - 0.01 in Rain Light Rain
11:56 PM 46.0 °F 41.4 °F 41.0 °F 83% 29.76 in 10.0 mi ESE 9.2 mph - 0.00 in   Overcast